Location: Góry Miechowskie
(50.3599°N, 20.1803°E)
Time: 15:20:20
(UTC+00:00)

Courier 1B Rocket - All Passes

Search period start: 13 September 2024 00:00
Search period end: 23 September 2024 00:00
Orbit: 920 x 1201 km, 28.2° (Epoch: 12 September)

Date Brightness Start Highest point End Pass type
(mag) Time Alt. Az. Time Alt. Az. Time Alt. Az.
13 Sep - 16:25:01 10° S 16:26:57 11° S 16:28:56 10° SSE daylight
13 Sep - 18:17:22 10° SSW 18:18:58 11° S 18:20:35 10° S visible
14 Sep - 17:16:04 10° SSW 17:18:10 11° S 17:20:18 10° SSE daylight
15 Sep - 16:15:28 10° SSW 16:17:23 11° S 16:19:20 10° SSE daylight
16 Sep - 15:15:50 10° S 15:16:38 10° S 15:17:26 10° SSE daylight
17 Sep - 16:06:49 10° SSW 16:07:49 10° S 16:08:50 10° S daylight
18 Sep - 15:06:29 10° S 15:07:05 10° S 15:07:41 10° S daylight
